Notices

What's New in latest Release from April 7th, 2021:

- Updated Glossary, including Speed of Maximum Gust, and Total Hourly Precipitation

- Updated national and regional climate services offices contacts and prices information

- Addition of station inventory lists for 1981-2010, 1971-2000, and 1961-1990 Normals.

If you haven't already, please take our survey and provide feedback about our website: https://eccc.sondage-survey.ca/f/LanguageSelection.aspx?s=442ca660-fcf1-47c0-95a9-59707d6fd709

Hourly Data Report for May 18, 2020

TRENTON A
ONTARIO
Current Station Operator: DND

44°07'00.000" N
77°32'00.000" W
86.30 m
6158875
71621
YTR

Download Data

Hourly Data (May 2020)
Hourly Data Report for May 18, 2020
TIME
LST
Temp Definition
°C
Dew Point Definition
°C
Rel Hum Definition
%
Precip. Amount Definition
mm

Wind Dir Definition
10's deg

Wind Spd Definition
km/h
Visibility Definition
km
Stn Press Definition
kPa
Hmdx Definition


Wind Chill Definition


Weather Definition


00:00 12.1 8.6 79   7 8 12.9 101.18     Rain
01:00 11.5 9.1 85   4 17 9.7 101.15     Rain,Fog
02:00 11.4 8.2 81   6 13 11.3 101.11     Rain
03:00 11.1 8.3 83   6 13 11.3 101.09     Rain
04:00 11.4 8.4 82   6 11 12.9 101.11     Rain
05:00 11.5 8.8 83   6 17 19.3 101.08     Rain
06:00 12.4 9.1 80   7 15 24.1 101.08     Cloudy
07:00 12.9 9.3 79   7 15 24.1 101.11     Cloudy
08:00 13.3 9.5 78   7 17 24.1 101.16     Cloudy
09:00 13.7 9.0 73   7 22 24.1 101.16     Cloudy
10:00 13.8 7.0 64   8 15 24.1 101.18     Cloudy
11:00 13.7 5.1 56   7 15 24.1 101.19     Rain
12:00 14.3 4.9 53   8 17 24.1 101.18     Mostly Cloudy
13:00 17.0 7.6 54   8 18 24.1 101.14     Cloudy
14:00 18.1 8.2 52   7 17 24.1 101.12     Cloudy
15:00 18.3 7.6 50   9 11 24.1 101.06     Cloudy
16:00 18.0 8.0 52   11 15 24.1 101.04     Cloudy
17:00 18.4 7.6 49   8 11 24.1 101.02     Mostly Cloudy
18:00 18.8 3.0 35   8 17 24.1 101.02     Mostly Cloudy
19:00 18.1 2.7 36   6 15 24.1 101.04     Mostly Cloudy
20:00 15.7 2.7 42   6 11 24.1 101.09     Mainly Clear
21:00 16.0 1.1 36   6 15 24.1 101.12     Mainly Clear
22:00 14.7 0.3 37   7 11 24.1 101.16     Clear
23:00 13.8 -2.1 33   6 13 24.1 101.18     Mainly Clear

Notes on Data Quality.

Legend

  • E = Estimated
  • M = Missing
  • NA = Not Available*
  • [empty] = Indicates an unobserved value
Date modified: